RYR7FT LICC-LGAV

Flight info

Callsign RYR7FT
Flight time N/A
Altitude 34000
Route PIMOR DCT DODEL DCT RUTOM/N0432F350 DCT ARA UY144 NEMES
Aircraft B738/M-SDE2E3FGHIRWXY/LB1

Departure

Time 2026-05-06 10:22
Airport Catania-Fontanarossa Airport (LICC)

Arrival

Time N/A
Airport Athens Eleftherios Venizelos International Airport (LGAV)
Time Latitude Longitude Altitude Speed Heading
2026-05-06 10:11 37.46936 15.06855 47 ft 0 kts
2026-05-06 10:17 37.46943 15.06840 47 ft 4 kts 242°
2026-05-06 10:17 37.46913 15.06792 47 ft 19 kts 231°
2026-05-06 10:17 37.46841 15.06599 47 ft 25 kts 264°
2026-05-06 10:18 37.46821 15.06389 47 ft 23 kts 262°
2026-05-06 10:18 37.46803 15.06193 47 ft 22 kts 264°
2026-05-06 10:18 37.46787 15.06006 47 ft 21 kts 264°
2026-05-06 10:18 37.46772 15.05825 47 ft 21 kts 264°
2026-05-06 10:19 37.46757 15.05633 47 ft 23 kts 264°
2026-05-06 10:19 37.46702 15.05472 47 ft 17 kts 190°
2026-05-06 10:19 37.46601 15.05552 47 ft 22 kts 95°
2026-05-06 10:19 37.46615 15.05908 47 ft 68 kts 84°
2026-05-06 10:20 37.46685 15.06739 47 ft 122 kts 84°
2026-05-06 10:20 37.46791 15.07961 240 ft 148 kts 83°
2026-05-06 10:20 37.46831 15.08392 464 ft 146 kts 83°
2026-05-06 10:22 37.48708 15.22220 4313 ft 270 kts 82°
2026-05-06 10:22 37.49094 15.24550 5159 ft 274 kts 76°
2026-05-06 10:22 37.49490 15.26943 6002 ft 277 kts 86°
2026-05-06 10:23 37.49565 15.29377 6798 ft 281 kts 88°
2026-05-06 10:23 37.49644 15.31852 7579 ft 285 kts 89°
2026-05-06 10:23 37.49720 15.34364 8329 ft 290 kts 89°
2026-05-06 10:23 37.49795 15.36919 9087 ft 294 kts 89°
2026-05-06 10:24 37.49870 15.39509 9791 ft 300 kts 89°
2026-05-06 10:24 37.49945 15.42164 10413 ft 308 kts 89°
2026-05-06 10:24 37.50021 15.44927 10829 ft 325 kts 88°
2026-05-06 10:24 37.50102 15.47868 11102 ft 346 kts 88°
2026-05-06 10:25 37.50186 15.50957 11487 ft 361 kts 88°
2026-05-06 10:25 37.50270 15.54116 12052 ft 369 kts 88°
2026-05-06 10:25 37.50356 15.57417 12751 ft 374 kts 88°
2026-05-06 10:25 37.50443 15.60732 13518 ft 377 kts 88°
2026-05-06 10:26 37.50529 15.64061 14273 ft 380 kts 88°
2026-05-06 10:26 37.50613 15.67362 15011 ft 384 kts 88°
2026-05-06 10:26 37.50703 15.70761 15787 ft 386 kts 87°
2026-05-06 10:26 37.50819 15.74164 16486 ft 391 kts 87°
2026-05-06 10:27 37.50930 15.77585 17195 ft 394 kts 87°
2026-05-06 10:27 37.51037 15.81041 17896 ft 396 kts 87°
2026-05-06 10:27 37.51139 15.84530 18561 ft 400 kts 88°
2026-05-06 10:27 37.51239 15.88083 19216 ft 403 kts 88°
2026-05-06 10:28 37.51335 15.91623 19843 ft 407 kts 88°
2026-05-06 10:28 37.51431 15.95218 20484 ft 410 kts 88°
2026-05-06 10:28 37.51523 15.98767 21063 ft 413 kts 88°
2026-05-06 10:28 37.51617 16.02440 21679 ft 416 kts 88°
2026-05-06 10:29 37.51707 16.06009 22259 ft 418 kts 88°
2026-05-06 10:29 37.51799 16.09764 22792 ft 422 kts 88°
2026-05-06 10:29 37.51889 16.13463 23314 ft 425 kts 88°
2026-05-06 10:29 37.51979 16.17195 23864 ft 427 kts 88°
2026-05-06 10:30 37.52067 16.20935 24358 ft 430 kts 88°
2026-05-06 10:30 37.52155 16.24718 24858 ft 433 kts 88°
2026-05-06 10:30 37.52213 16.27247 25185 ft 435 kts 89°
2026-05-06 10:30 37.52301 16.31103 25666 ft 437 kts 89°
2026-05-06 10:31 37.52387 16.34953 26148 ft 439 kts 89°
2026-05-06 10:31 37.52472 16.38806 26613 ft 441 kts 89°
2026-05-06 10:31 37.52556 16.42683 27037 ft 444 kts 89°
2026-05-06 10:31 37.52639 16.46581 27462 ft 446 kts 89°
2026-05-06 10:32 37.52722 16.50500 27872 ft 449 kts 89°
2026-05-06 10:32 37.52803 16.54434 28270 ft 451 kts 89°
2026-05-06 10:32 37.52884 16.58405 28659 ft 453 kts 89°
2026-05-06 10:32 37.52964 16.62367 29031 ft 455 kts 89°
2026-05-06 10:33 37.53043 16.66376 29406 ft 457 kts 89°
2026-05-06 10:33 37.53121 16.70394 29756 ft 459 kts 89°
2026-05-06 10:33 37.53197 16.74410 30098 ft 461 kts 89°
2026-05-06 10:33 37.53273 16.78469 30422 ft 464 kts 89°
2026-05-06 10:34 37.53348 16.82540 30702 ft 466 kts 89°
2026-05-06 10:34 37.53422 16.86640 31015 ft 468 kts 90°
2026-05-06 10:34 37.53495 16.90804 31312 ft 470 kts 90°
2026-05-06 10:34 37.53566 16.94915 31656 ft 471 kts 90°
2026-05-06 10:35 37.53636 16.99029 32097 ft 469 kts 90°
2026-05-06 10:35 37.53704 17.03128 32468 ft 468 kts 90°
2026-05-06 10:35 37.53771 17.07239 32813 ft 468 kts 90°
2026-05-06 10:35 37.53836 17.11334 33193 ft 467 kts 90°
2026-05-06 10:36 37.53900 17.15425 33529 ft 467 kts 90°
2026-05-06 10:36 37.53963 17.19520 33890 ft 466 kts 90°
2026-05-06 10:36 37.54023 17.23595 34209 ft 466 kts 90°
2026-05-06 10:36 37.54083 17.27689 34540 ft 466 kts 90°
2026-05-06 10:37 37.54141 17.31763 34848 ft 466 kts 90°
2026-05-06 10:37 37.54197 17.35861 35117 ft 467 kts 90°
2026-05-06 10:37 37.54252 17.39934 35450 ft 466 kts 90°
2026-05-06 10:37 37.54306 17.44007 35787 ft 465 kts 90°
2026-05-06 10:38 37.54359 17.48096 36028 ft 466 kts 90°
2026-05-06 10:38 37.54409 17.52169 36331 ft 465 kts 90°
2026-05-06 10:38 37.54459 17.56248 36622 ft 465 kts 90°
2026-05-06 10:38 37.54507 17.60329 36875 ft 465 kts 90°
2026-05-06 10:39 37.54554 17.64392 37116 ft 466 kts 90°
2026-05-06 10:39 37.54599 17.68460 37410 ft 465 kts 90°
2026-05-06 10:39 37.54643 17.72549 37631 ft 465 kts 90°
2026-05-06 10:39 37.54685 17.76619 37865 ft 465 kts 90°
2026-05-06 10:40 37.54726 17.80703 38139 ft 465 kts 90°
2026-05-06 10:40 37.54766 17.84757 38351 ft 465 kts 90°
2026-05-06 10:40 37.54804 17.88846 38591 ft 465 kts 90°
2026-05-06 10:40 37.54841 17.92913 38823 ft 465 kts 89°
2026-05-06 10:41 37.54877 17.97033 39003 ft 465 kts 89°
2026-05-06 10:41 37.54912 18.01169 39081 ft 468 kts 89°
2026-05-06 10:41 37.54976 18.09391 39097 ft 467 kts 89°
2026-05-06 10:42 37.55034 18.17541 39103 ft 464 kts 90°
2026-05-06 10:42 37.55087 18.25719 39105 ft 466 kts 90°
2026-05-06 10:43 37.55134 18.33894 39107 ft 466 kts 90°
2026-05-06 10:44 37.55194 18.46142 39108 ft 466 kts 90°
2026-05-06 10:44 37.55227 18.54304 39111 ft 466 kts 90°
2026-05-06 10:45 37.55255 18.62458 39112 ft 466 kts 90°
2026-05-06 10:45 37.55277 18.70691 39113 ft 466 kts 90°
2026-05-06 10:46 37.55293 18.78855 39115 ft 467 kts 90°
2026-05-06 10:46 37.55303 18.87051 39116 ft 467 kts 90°
2026-05-06 10:47 37.55308 18.95219 39117 ft 467 kts 90°
2026-05-06 10:47 37.55307 19.03404 39119 ft 468 kts 90°
2026-05-06 10:48 37.55301 19.11671 39120 ft 468 kts 90°
2026-05-06 10:48 37.55289 19.19849 39122 ft 468 kts 90°
2026-05-06 10:49 37.55271 19.28063 39123 ft 469 kts 90°
2026-05-06 10:49 37.55247 19.36235 39125 ft 468 kts 90°
2026-05-06 10:50 37.55218 19.44533 39126 ft 468 kts 90°
2026-05-06 10:50 37.55183 19.52719 39127 ft 469 kts 90°
2026-05-06 10:51 37.55142 19.60952 39128 ft 469 kts 90°
2026-05-06 10:51 37.55096 19.69167 39130 ft 469 kts 90°
2026-05-06 10:52 37.55044 19.77379 39131 ft 469 kts 90°
2026-05-06 10:52 37.54986 19.85662 39132 ft 469 kts 90°
2026-05-06 10:53 37.54923 19.93860 39133 ft 469 kts 90°
2026-05-06 10:53 37.54854 20.02037 39133 ft 469 kts 90°
2026-05-06 10:54 37.54778 20.10325 39134 ft 470 kts 90°
2026-05-06 10:54 37.54698 20.18554 39135 ft 470 kts 90°
2026-05-06 10:55 37.54611 20.26785 39134 ft 470 kts 90°
2026-05-06 10:55 37.54534 20.33677 39136 ft 470 kts 90°
2026-05-06 10:56 37.54437 20.41934 39137 ft 470 kts 90°
2026-05-06 10:56 37.54334 20.50185 39138 ft 470 kts 90°
2026-05-06 10:57 37.54226 20.58411 39140 ft 469 kts 90°
2026-05-06 10:57 37.54112 20.66630 39140 ft 469 kts 90°
2026-05-06 10:58 37.54020 20.72941 39140 ft 469 kts 90°